Showing default

CORVUS BC2, 42846

Orbit data source: Space-Track

CORVUS BC2, 42846 is a payload satellite owned by Astro Digital (US) in SSO that was launched on Fri, 14 Jul 2017 UTC via a SOYUZ-2-1A launch vehicle from the Tyuratam Missile And Space Complex (TTMTR). Payload-class satellites include a variety of spacecraft equipped with specific instruments for various scientific and technological missions. These include communications satellites like Starlink; space stations such as the ISS; scientific satellites like the Hubble; Earth observation satellites from companies like Planet Labs, Umbra, and HawkEye 360; GPS; miniature CubeSats for education and research; and military/defense satellites.

Loading next visibility...
Identifier
42846, 2017-042X
Orbit
SSO
Country
Flag of USUS
Related business
Manufacturer
Astro Digital
Mission
Operational Commercial Imaging
Bus & Motor
CUBESAT 6U, Unknown motor
Mass
10 kg wet, 10 kg dry
Launch date (UTC)
2017-07-14 (8 years ago)
Launch vehicle
SOYUZ-2-1A
Launch site
Tyuratam Missile And Space Complex (TTMTR)
Object type
Payload
Rocket body
Debris
Shape & HBR
Box + 2 Pan, 0.2 m
Radar Cross Section
0.092 m², Small (<0.1 m²)

Expand to show TLE details & history
Last TLE update: 11 hours ago

TLE from 11 hours ago
0 CORVUS BC2
1 42846U 17042X   25289.10257977  .00005795  00000-0  42282-3 0  9999
2 42846  97.3824  95.6806 0012863 223.1560 136.8659 15.03999672450347
Epoch: 2025-10-16T02:27Z
TLE epoch observation values (Epoch: 2025-10-16T02:27:42.892Z)
Latitude
-0.00002°
Longitude
33.88477°
Altitude
564.162 km
Speed
7.576 km/s
True Right ascension
06h 22m 43s
True Declination
0° 00' 00"
Sunlit
Object was in daylight at epoch
Visualization orbit readout
Latitude
Unknown
Longitude
Unknown
Altitude
Unknown
Speed
Unknown
Apparent Right ascension
Unknown
Apparent Declination
Unknown
Sunlit
N/A
Visualization observer readout
Local Sidereal Time
07:57:27
Azimuth
Unknown
Elevation
Unknown
Doppler factor
Unknown
Orbital elements
Apogee altitude
560.478 km
Perigee altitude
542.651 km
Semi-major axis
6,929.701 km
Eccentricity
0.00129
Inclination
97.3824°
RAAN
95.6806°
Arg. of periapsis
223.156°
True anomaly
136.96656°
Mean anomaly
136.8659°
Eccentric anomaly
136.91624°
Mean motion
3.76246 °/min
Orbital period
95.68 mins
BSTAR
0.00042282
Loading maneuver chart data...
Computing Atmospheric mass density...

Documentation

Showing up to 5 results
|